Starlink 31059

operational
NORAD ID: 58596 Int'l Des: 2023-200 Owner: SPXS Country: US Constellation: starlink
LEOCIRCULAR

About Starlink 31059

Description loading...

Live Position

Loading 3D Globe...

Upcoming Passes

Altitude History

Altitude vs Time

uPlot chart will show altitude changes over time

Two-Line Element Set

1 58596U 23200H 26048.56765648 -.00002257 00000-0 -72538-4 0 9994
2 58596 42.9984 125.7648 0000655 214.0503 146.0307 15.27579209122378
Epoch: Feb 17, 2026 • Age: 17 hours

Current Status

Altitude 482.8 km
Velocity 7.63 km/s
Sub-Earth Point 3.73°N, 126.21°W
Launch Date Dec 19, 2023
Age 2.1 years
Type internet

Technical Details

Classification Payload
Mass 730.00 kg
Dry Mass 700.00 kg
Total Mass 730.00 kg
Length 0.30 m
Diameter 4.10 m
Span 29.00 m
Shape Box + pan
Manufacturer SPXS
Bus Type Starlink V2M
Phase Status In Orbit
Owner/State SPXS/US

Large Constellations

Loading constellations...